SCP
0 0 0 0 0 0 0 0 0 0 0 0 0 0 0 0 0 0 0 0 0 0 0 0 0 0 0 0 0 0 0 0 0 0 0 0 0 0 0 -0 -0 -0 0 0 0 -0 -0 0 -0 0 0 0 0 0
0 0 0 0 0 0 0 0 0 0 0 0 0 0 0 0 0 0 0 0 0 0 0 0 0 0 0 0 0 0 0 0 0 0 0 0 0 0 0 0 -0 0 -0 0 0 0 -0 -0 -0 -0 -0 -0 -0 -0
0 0 0 0 0 0 0 0 0 0 0 0 0 0 0 0 0 0 0 0 0 0 0 0 0 0 0 0 0 0 0 0 0 0 0 0 0 0 0 0 0 0 0 -0 -0 0 0 0 -0 0 0 -0 0 -0
0 0 0 0 0 0 0 0 0 0 0 0 0 0 0 0 0 0 0 0 0 0 0 0 0 0 0 0 0 0 0 0 0 0 0 0 0 0 0 0 0 0 0 0 0 0 -0 0 0 0 0 0 0 0
0 0 0 0 0 0 0 0 0 0 0 0 0 0 0 0 0 0 0 0 0 0 0 0 0 0 0 0 0 0 0 0 0 0 0 0 0 0 0 0 0 0 0 0 0 0 0 0 0 0 0 0 0 0
0 0 0 0 0 0 0 0 0 0 0 0 0 0 0 0 0 0 0 0 0 0 0 0 0 0 0 0 0 0 0 0 0 0 0 0 0 0 0 0 0 0 0 0 0 0 0 0 0 0 0 0 0 0
0 0 0 0 0 0 0 0 0 0 0 0 0 0 0 0 0 0 0 0 0 0 0 0 0 0 0 0 0 0 0 0 0 0 0 0 0 0 0 0 0 0 0 0 0 0 0 0 0 0 0 0 0 0
0 0 0 0 0 0 0 0 0 0 0 0 0 0 0 0 0 0 0 0 0 0 0 0 0 0 0 0 0 0 0 0 0 0 0 0 0 0 0 0 0 0 0 0 0 0 0 0 0 0 0 0 0 0
0 0 0 0 0 0 0 0 0 0 0 0 0 0 0 0 0 0 0 0 0 0 0 0 0 0 0 0 0 0 0 0 0 0 0 0 0 0 0 0 0 0 0 0 0 0 0 0 0 0 0 0 0 0
0 0 0 0 0 0 0 0 0 0 0 0 0 0 0 0 0 0 0 0 0 0 0 0 0 0 0 0 0 0 0 0 0 0 0 0 0 0 0 0 0 0 0 0 -0 -0 -0 -0 -0 -0 -0 -0 0 -0
0 0 0 0 0 0 0 0 0 0 0 0 0 0 0 0 0 0 0 0 0 0 0 0 0 0 0 0 0 0 0 0 0 0 0 0 0 0 0 0 0 0 0 0 0 -0 -0 -0 -0 -0 -0 -0 -0 -0
0 0 0 0 0 0 0 0 0 0 0 0 0 0 0 0 0 0 0 0 0 0 0 0 0 0 0 0 0 0 0 0 0 0 0 0 0 0 0 0 0 0 0 0 0 -0 -0 -0 -0 -0 -0 -0 -0 -0
0 0 0 0 0 0 0 0 0 0 0 0 0 0 0 0 0 0 0 0 0 0 0 0 0 0 0 0 0 0 0 0 0 0 0 0 0 0 0 0 0 0 0 0 0 0 0 0 0 0 0 0 0 0
0 0 0 0 0 0 0 0 0 0 0 0 0 0 0 0 0 0 0 0 0 0 0 0 0 0 0 0 0 0 0 0 0 0 0 0 0 0 0 0 0 0 0 0 0 0 0 0 0 0 0 0 0 0
0 0 0 0 0 0 0 0 0 0 0 0 0 0 0 0 0 0 0 0 0 0 0 0 0 0 0 0 0 0 0 0 0 0 0 0 0 0 0 0 0 0 0 0 0 0 0 0 0 0 0 0 0 0
0 0 0 0 0 0 0 0 0 0 0 0 0 0 0 0 0 0 0 0 0 0 0 0 0 0 0 0 0 0 0 0 0 0 0 0 0 0 0 0 0 0 0 0 0 0 0 0 0 0 0 0 0 0
0 0 0 0 0 0 0 0 0 0 0 0 0 0 0 0 0 0 0 0 0 0 0 0 0 0 0 0 0 0 0 0 0 0 0 0 0 0 0 0 0 0 0 0 0 0 0 0 0 0 0 0 0 0
0 0 0 0 0 0 0 0 0 0 0 0 0 0 0 0 0 0 0 0 0 0 0 0 0 0 0 0 0 0 0 0 0 0 0 0 0 0 0 0 0 0 0 0 0 0 0 0 0 0 0 0 0 0
0 0 0 0 0 0 0 0 0 0 0 0 0 0 0 0 0 0 0 0 0 0 0 0 0 0 0 0 0 0 0 0 0 0 0 0 0 0 0 0 0 0 0 0 0 0 0 0 0 0 0 0 0 0
0 0 0 0 0 0 0 0 0 0 0 0 0 0 0 0 0 0 0 0 0 0 0 0 0 0 0 0 0 0 0 0 0 0 0 0 0 0 0 0 0 0 0 0 0 0 0 0 0 0 0 0 0 0
0 0 0 0 0 0 0 0 0 0 0 0 0 0 0 0 0 0 0 0 0 0 0 0 0 0 0 0 0 0 0 0 0 0 0 0 0 0 0 0 0 0 0 0 0 0 0 0 0 0 0 0 0 0
0 0 0 0 0 0 0 0 0 0 0 0 0 0 0 0 0 0 0 0 0 0 0 0 0 0 0 0 0 0 0 0 0 0 0 0 0 0 0 0 0 0 0 0 0 0 0 0 0 0 0 0 0 0
0 0 0 0 0 0 0 0 0 0 0 0 0 0 0 0 0 0 0 0 0 0 0 0 0 0 0 0 0 0 0 0 0 0 0 0 0 0 0 0 0 0 0 0 0 0 0 0 0 0 0 0 0 0
0 0 0 0 0 0 0 0 0 0 0 0 0 0 0 0 0 0 0 0 0 0 0 0 0 0 0 0 0 0 0 0 0 0 0 0 0 0 0 0 0 0 0 0 0 0 0 0 0 0 0 0 0 0
0 0 0 0 0 0 0 0 0 0 0 0 0 0 0 0 0 0 0 0 0 0 0 -0 0 0 0 0 0 0 0 0 0 0 0 0 0 0 0 0 0 0 0 0 0 0 0 0 0 0 0 0 0 0
0 0 0 0 0 0 0 0 0 0 0 0 -0 0 0 0 0 0 0 0 0 0 0 0 0 0 0 0 0 0 0 0 0 0 0 0 0 0 0 0 0 0 0 0 0 0 0 0 0 0 0 0 0 0
0 0 0 0 0 0 0 0 0 0 0 -0 0 0 0 0 0 0 0 0 -0 0 0 0 0 0 0 0 0 0 0 0 0 0 0 0 0 0 0 0 0 0 0 0 0 0 0 0 0 0 0 0 0 0
0 0 0 0 0 0 0 0 0 0 0 0 0 0 0 0 0 0 -0 -0 -0 -0 -0 0 0 0 0 0 0 0 0 0 0 0 0 0 0 0 0 0 0 0 0 0 0 0 0 0 0 0 0 0 0 0
0 0 0 0 0 0 0 0 0 0 0 0 0 0 0 0 0 -0 -0 -0 -0 -0 -0 -0 -0 0 0 0 0 0 0 0 0 0 0 0 0 0 0 0 0 0 0 0 -0 0 0 0 0 0 0 0 0 0
0 0 0 0 0 0 0 0 0 0 0 0 0 0 0 0 0 0 0 0 0 0 0 -0 -0 -0 0 0 0 0 0 0 0 0 0 0 0 0 0 0 0 0 0 0 0 -0 0 0 0 -0 -0 -0 -0 -0
0 0 0 0 0 0 0 0 0 0 0 0 0 0 0 0 -0 0 0 0 0 0 -0 -0 -0 -0 0 0 0 0 0 0 0 0 0 0 0 0 0 0 0 0 0 0 0 0 0 0 0 0 0 -0 -0 -0
0 0 0 0 0 0 0 -0 0 0 0 0 0 0 0 0 -0 -0 0 0 0 0 0 0 0 0 0 0 0 0 0 0 0 0 0 0 0 0 0 0 0 0 0 0 0 0 0 0 0 0 0 0 -0 -0
0 0 0 0 0 0 0 0 0 0 0 0 0 0 0 0 0 0 0 0 0 0 0 0 0 0 0 0 0 0 0 0 0 0 0 0 0 0 0 0 0 0 0 0 0 0 0 0 0 0 0 0 0 0
Wind_Speed_500mb
37 39 39 40 39 41 45 45 42 43 45 44 46 46 41 37 35 37 48 44 38 33 68 52 35 50 53 29 7 10 11 6 6 6 5 5 2 4 5 16 10 6 6 7 4 5 11 17 7 8 3 11 11 9
44 45 41 43 42 43 45 46 51 47 45 44 47 47 40 40 37 37 53 45 38 43 63 74 63 38 31 32 33 11 9 6 5 3 3 2 5 4 5 7 9 7 7 5 7 5 5 4 3 9 6 11 7 8
45 48 48 45 45 47 49 46 48 50 48 46 48 47 41 42 39 38 50 45 41 35 52 28 42 27 30 24 20 14 11 19 13 21 4 5 7 7 4 9 4 9 5 8 9 11 4 6 12 12 10 12 7 5
52 48 49 51 45 48 50 51 47 51 49 50 51 50 44 46 43 41 47 44 43 18 11 22 36 57 46 40 28 38 51 47 44 32 14 7 5 16 6 9 10 15 3 8 10 10 7 7 7 4 6 3 7 13
54 55 52 53 47 48 50 50 53 49 51 53 54 51 49 48 47 48 45 45 26 13 10 30 60 41 19 29 32 29 34 40 30 9 8 6 7 5 4 2 6 6 8 4 9 3 4 6 8 7 6 11 15 20
53 57 51 52 47 50 51 54 48 52 51 54 58 49 51 53 43 35 13 17 25 24 13 7 17 36 29 28 32 26 21 19 24 10 7 12 12 10 7 7 5 10 9 12 4 8 12 14 16 14 16 22 25 28
56 55 52 52 50 50 51 51 53 55 59 68 59 54 55 54 36 24 14 12 23 22 9 10 12 7 15 20 14 18 16 15 17 11 10 9 11 7 1 14 6 16 14 15 15 10 9 9 10 21 30 25 33 37
57 58 54 52 53 48 52 49 56 61 71 66 72 62 56 44 21 33 45 49 32 17 13 5 9 8 11 8 10 10 10 9 13 10 6 2 5 0 7 8 14 16 12 15 17 12 17 23 26 22 27 38 45 49
60 60 55 54 53 47 51 47 59 64 68 79 82 56 34 9 14 22 35 34 33 25 9 9 7 8 15 5 9 9 7 5 8 2 1 4 3 8 15 16 27 22 13 11 16 21 24 22 27 37 42 47 55 61
62 60 58 54 54 49 48 51 55 64 72 74 55 11 5 6 14 24 18 8 14 18 17 6 12 4 12 15 8 13 7 2 6 5 19 4 7 15 17 14 14 13 7 10 19 20 26 43 46 54 59 63 66 72
63 61 61 58 55 50 46 51 55 61 56 45 21 11 20 15 16 9 8 3 3 5 13 7 19 4 3 4 5 6 3 3 5 7 4 6 7 7 17 17 9 4 14 21 28 36 40 48 58 64 70 70 72 74
66 65 64 60 54 50 43 48 52 44 41 41 44 56 36 7 8 4 5 6 3 10 11 10 11 7 4 4 5 4 3 5 11 10 6 7 7 12 26 12 6 15 23 32 36 46 49 52 54 60 67 70 70 69
65 64 62 61 54 48 43 48 48 52 42 44 11 6 5 7 2 15 12 9 5 14 23 17 3 6 7 5 9 5 3 10 4 5 7 9 6 26 15 13 20 24 31 39 43 42 46 52 54 58 63 62 61 62
61 62 59 59 54 46 48 51 50 40 19 10 6 11 9 8 12 11 8 7 7 7 35 24 13 4 5 6 2 5 7 4 5 3 12 6 26 21 13 20 30 34 36 40 43 47 51 53 55 56 57 56 56 60
61 57 58 58 54 46 52 60 49 34 9 11 10 12 16 17 11 7 11 12 11 36 29 16 12 3 3 4 1 3 7 8 12 10 7 15 20 13 21 26 31 32 34 39 42 45 45 46 48 53 49 50 54 57
65 61 61 58 56 46 58 56 47 31 12 17 21 9 12 3 5 11 19 16 31 35 19 9 6 5 7 6 4 14 8 14 8 7 13 21 13 18 22 26 27 31 35 37 37 39 41 42 46 52 55 53 49 49
62 72 71 61 59 56 62 60 44 20 20 15 14 29 26 20 14 7 15 20 42 32 6 6 10 17 7 2 7 10 12 7 12 21 22 10 16 18 21 22 26 30 31 32 34 34 37 39 43 47 50 48 48 47
70 74 72 63 74 66 64 73 27 20 22 32 9 10 17 21 14 14 16 27 40 23 20 9 19 11 13 13 9 8 30 27 17 19 15 13 15 16 19 23 25 28 29 28 28 29 33 37 43 46 48 51 53 51
74 71 71 78 77 72 25 26 33 15 34 10 17 27 19 19 25 28 22 32 42 22 9 12 10 10 11 9 8 15 21 20 21 21 16 13 13 14 17 21 24 23 23 23 23 28 34 36 38 40 42 45 49 50
69 66 74 86 89 60 22 19 26 14 12 15 15 13 10 10 9 13 23 34 39 13 10 9 13 15 16 19 24 23 20 20 22 18 14 10 12 13 14 21 22 21 19 18 21 27 31 33 36 39 41 42 45 49
69 72 64 100 92 59 24 24 22 14 14 12 9 8 6 5 6 7 11 33 25 15 8 40 53 59 53 39 34 27 27 27 23 18 16 11 11 11 15 21 21 19 19 18 20 23 28 35 39 42 43 41 40 43
64 58 63 83 30 24 10 17 12 21 13 11 10 8 5 3 7 8 12 23 18 27 43 56 57 57 54 60 63 54 39 33 32 27 22 20 14 14 14 18 19 14 13 13 16 21 25 30 34 37 39 41 43 42
60 55 34 21 10 4 2 15 3 5 5 8 7 2 4 5 7 12 9 19 23 27 45 60 72 75 73 66 58 55 51 56 47 33 25 23 17 16 13 17 18 14 8 11 11 15 19 24 27 31 34 40 43 45
28 20 7 7 9 5 8 6 7 6 4 3 2 5 5 7 11 5 8 12 18 28 41 53 48 48 44 48 49 42 37 39 37 31 27 24 16 15 12 12 15 14 9 8 8 11 15 18 22 26 31 35 40 44
6 13 8 10 9 5 5 4 3 2 4 7 7 6 4 8 1 7 8 7 20 37 52 58 38 29 35 32 25 24 21 26 28 23 23 21 16 14 11 8 12 12 8 7 8 9 11 14 17 21 27 32 36 38
14 18 11 11 6 4 2 4 7 8 6 4 7 5 2 2 3 10 4 12 22 46 63 57 48 36 23 20 20 9 12 17 21 22 19 18 14 15 13 8 8 10 9 4 5 6 9 12 15 18 22 27 31 33
12 10 15 15 10 10 4 5 5 3 3 2 4 4 1 4 8 2 9 26 44 60 59 50 37 30 24 19 14 16 18 15 17 16 13 10 10 11 10 7 10 8 8 3 5 6 6 8 12 15 19 24 28 31
9 19 11 28 12 11 6 6 4 1 4 1 2 4 6 8 3 14 21 47 55 66 57 43 35 29 20 15 12 7 5 6 11 12 10 8 9 9 9 8 6 7 7 2 2 4 6 7 10 12 16 19 23 26
8 28 21 7 6 5 3 2 4 4 3 4 3 5 7 10 25 51 51 58 63 52 45 45 32 29 28 27 27 20 6 2 5 10 10 7 7 8 11 12 9 8 8 3 2 3 4 3 7 11 12 14 17 20
12 31 10 7 4 4 4 8 21 37 36 28 17 17 20 17 22 38 51 57 48 43 39 42 41 29 17 25 27 23 15 8 14 14 11 7 5 6 8 9 9 9 7 5 3 2 4 6 6 6 7 11 12 13
22 13 7 4 8 11 24 49 63 32 12 2 6 8 8 9 23 49 66 61 48 47 46 45 40 28 8 3 15 15 10 12 15 13 14 11 6 4 5 7 9 10 8 7 6 4 2 4 5 4 3 4 6 7
19 6 8 6 10 21 31 58 27 8 6 3 3 3 5 5 6 39 65 67 69 67 57 51 50 46 33 12 2 5 8 8 9 6 9 9 7 4 4 5 7 8 7 8 8 6 5 3 2 1 3 4 5 6
15 10 8 8 11 16 31 31 10 11 5 3 3 2 1 2 6 22 54 71 70 68 62 48 44 46 46 41 33 24 18 15 10 5 2 4 5 4 3 4 4 4 3 3 5 6 6 7 8 8 8 8 9 10
Wind_Direction_500mb
311 311 315 311 318 324 328 324 323 322 324 326 326 325 324 320 317 320 315 313 309 286 293 294 292 295 295 292 267 287 332 317 25 43 124 251 174 282 326 296 269 255 290 276 296 252 251 346 22 69 241 104 87 70
307 309 311 310 315 313 318 323 322 324 321 319 321 323 319 317 312 313 307 307 312 275 276 296 298 293 276 286 289 230 255 167 242 105 231 241 292 354 172 278 320 301 219 268 238 289 184 336 336 93 140 123 97 109
300 304 305 308 307 311 312 314 318 320 320 316 319 319 316 315 310 306 306 306 302 289 297 278 300 287 303 284 277 252 246 237 227 239 233 235 226 124 201 250 265 277 249 268 350 315 358 112 98 100 79 94 87 58
299 301 304 303 304 306 310 313 314 316 320 316 313 313 316 313 308 302 297 296 298 262 265 272 303 292 293 281 278 259 266 265 260 251 239 225 204 196 226 232 237 264 327 268 249 247 122 111 116 103 65 24 334 331
299 295 299 298 301 301 308 310 314 313 316 317 313 310 312 310 305 297 291 286 268 248 276 292 306 304 283 261 285 287 263 258 259 231 225 225 219 191 228 79 260 188 220 211 272 124 283 52 315 323 323 319 324 323
298 297 297 295 297 297 297 304 311 315 316 313 310 308 308 303 304 302 284 242 228 263 300 304 297 278 271 273 290 286 278 258 241 240 233 232 243 220 240 210 232 183 227 227 252 280 260 267 274 285 310 314 312 314
293 289 292 291 291 296 298 304 307 309 310 318 316 308 300 298 284 240 255 200 221 277 256 302 291 265 300 301 287 290 272 246 239 246 229 230 234 238 233 257 174 202 213 228 233 280 258 233 232 291 302 305 308 308
296 292 290 287 293 294 295 301 302 301 315 321 322 309 298 294 257 232 248 256 266 284 230 239 268 326 354 311 311 289 273 258 232 251 244 228 296 335 239 224 194 207 225 229 227 250 272 278 284 290 295 305 305 306
296 290 285 287 288 289 294 297 296 302 310 324 326 311 295 249 208 221 239 256 259 226 232 180 169 257 342 5 292 298 304 322 301 229 300 353 295 224 225 192 200 199 200 196 251 281 286 281 292 298 301 303 303 304
291 285 283 282 284 289 292 290 298 298 306 321 330 325 254 213 253 282 272 232 206 210 227 204 193 274 358 2 348 328 9 320 308 283 311 188 254 250 215 186 177 184 218 276 296 304 300 300 307 309 310 309 307 306
283 279 281 281 281 287 293 288 293 291 306 335 328 268 260 283 310 234 246 213 242 298 215 198 195 168 30 89 225 29 246 309 345 276 93 306 284 294 181 173 168 275 298 299 297 299 302 302 304 305 303 302 303 304
281 280 278 279 279 281 289 286 288 283 311 319 309 282 284 249 223 108 236 330 167 231 197 165 176 176 155 162 102 353 166 41 253 331 48 278 247 189 159 166 261 295 297 295 296 298 299 296 298 298 298 301 303 303
282 277 276 275 274 275 275 279 277 294 308 319 289 255 248 193 48 178 223 257 271 189 180 168 163 157 143 145 76 71 98 226 320 31 236 234 247 181 202 270 293 294 298 298 301 300 301 303 303 302 302 305 307 305
286 279 274 271 269 269 267 267 277 276 321 278 256 280 180 234 241 199 189 192 182 170 149 138 104 142 130 71 139 108 241 56 2 318 239 241 206 201 255 282 292 303 304 305 308 308 308 308 309 309 311 313 311 308
282 278 273 269 264 265 260 260 262 271 257 244 202 235 222 241 255 246 213 159 150 156 141 114 88 146 26 100 81 63 358 260 211 230 233 206 184 248 275 287 295 301 304 304 307 309 311 313 313 312 315 314 314 311
278 275 264 266 258 256 246 252 244 238 219 219 228 266 230 338 214 219 212 204 172 163 140 115 116 95 240 148 138 218 166 226 242 215 204 176 241 283 292 295 299 305 308 311 315 317 319 323 322 321 321 322 320 317
278 269 270 267 256 235 243 234 233 207 218 219 245 237 250 280 259 234 214 199 180 162 181 146 175 212 110 124 242 197 215 226 218 191 175 234 283 295 292 298 307 310 315 320 322 327 327 327 324 324 326 333 329 330
267 268 268 262 227 232 234 225 216 218 223 230 221 208 226 236 252 253 220 195 175 198 168 207 138 190 207 198 227 228 229 234 221 200 234 266 285 291 294 303 311 320 325 324 327 331 330 333 336 338 337 338 335 341
273 270 266 244 229 219 216 209 210 214 222 215 235 246 249 249 250 243 230 205 197 195 199 178 234 211 223 217 216 224 227 225 217 230 243 260 274 280 292 306 320 322 323 326 336 342 345 346 342 342 342 340 337 343
271 265 262 242 238 211 195 199 194 217 197 197 216 215 217 220 245 243 221 202 199 204 225 223 222 225 215 237 244 262 260 236 217 227 253 252 262 276 304 317 322 323 329 342 349 344 345 354 359 357 355 348 342 346
275 261 253 201 200 204 192 177 181 192 173 175 183 198 232 240 219 197 204 195 200 226 245 237 244 251 251 262 267 264 250 238 234 247 264 261 278 293 316 316 321 322 325 344 354 357 356 2 3 4 1 359 359 360
261 243 216 199 203 202 181 169 154 156 146 136 167 201 173 172 194 194 193 194 237 231 237 256 264 269 272 267 264 264 259 243 241 253 263 270 279 289 304 311 310 312 312 337 352 357 0 5 11 11 10 13 17 14
244 223 201 180 187 115 42 146 106 121 156 135 150 204 207 190 183 193 243 231 253 263 266 269 273 273 269 267 264 261 255 243 242 257 253 259 272 287 295 306 305 306 309 326 344 350 356 4 10 15 16 20 20 24
189 157 128 99 65 103 107 54 69 77 84 87 132 262 206 166 165 143 252 261 266 325 332 327 303 287 276 267 256 259 253 235 227 232 244 252 261 263 273 293 300 298 309 322 334 338 346 355 5 9 15 20 21 20
144 23 38 57 57 110 105 109 99 152 194 188 206 270 243 148 196 224 230 276 316 339 340 346 334 300 275 268 268 245 231 235 239 244 244 244 245 250 255 283 295 292 304 326 333 329 334 350 359 5 12 17 20 19
65 13 34 2 14 11 136 150 184 204 190 235 227 77 160 122 268 254 226 338 345 342 343 343 339 331 323 289 263 259 240 238 233 235 240 244 246 238 240 252 277 288 284 320 326 325 334 352 6 9 17 23 25 30
41 353 354 15 336 324 335 56 48 47 307 286 136 173 179 276 255 256 345 350 340 340 339 336 328 324 305 294 313 241 252 251 233 228 232 243 247 243 243 250 256 258 259 307 3 343 346 10 22 26 31 33 33 36
34 11 348 323 3 9 340 350 23 326 283 45 154 241 222 218 318 353 343 337 334 330 327 326 319 305 289 251 248 259 256 228 218 230 238 239 245 235 221 226 228 261 259 216 17 13 3 25 39 44 48 48 46 43
350 343 344 336 349 358 342 275 279 286 272 221 259 265 289 329 316 325 334 336 330 329 329 328 319 292 268 241 216 207 221 333 284 265 262 246 222 208 190 203 209 224 238 204 129 71 46 31 64 59 55 54 50 45
335 347 333 314 319 279 330 313 299 300 288 278 262 277 292 320 15 7 356 355 353 352 351 350 344 330 272 223 213 217 229 275 311 279 252 258 240 202 196 199 208 215 215 207 155 121 114 103 80 65 51 42 33 28
303 312 295 258 262 302 329 336 327 318 304 283 222 235 271 305 30 16 16 18 21 20 18 17 15 13 15 186 208 222 257 289 309 268 236 228 221 201 187 197 206 200 204 218 188 160 186 129 113 95 46 14 352 360
296 309 341 301 288 322 337 344 322 328 325 326 304 303 339 345 22 18 20 25 30 28 26 27 32 36 41 42 351 293 327 334 319 275 223 219 228 230 216 216 225 210 193 218 222 193 191 225 209 206 255 271 289 309
283 280 267 283 307 333 332 336 300 332 277 268 225 234 194 84 93 12 23 28 28 26 26 28 34 41 45 47 45 38 24 11 359 338 274 213 195 206 232 235 228 235 230 232 262 276 265 244 239 244 247 257 269 278
Wind_Speed_850mb
37 39 39 40 39 41 45 45 42 43 45 44 46 46 41 37 35 37 48 44 38 33 68 52 35 50 53 29 7 10 11 6 6 6 5 5 2 4 5 16 10 6 6 7 4 5 11 17 7 8 3 11 11 9
44 45 41 43 42 43 45 46 51 47 45 44 47 47 40 40 37 37 53 45 38 43 63 74 63 38 31 32 33 11 9 6 5 3 3 2 5 4 5 7 9 7 7 5 7 5 5 4 3 9 6 11 7 8
45 48 48 45 45 47 49 46 48 50 48 46 48 47 41 42 39 38 50 45 41 35 52 28 42 27 30 24 20 14 11 19 13 21 4 5 7 7 4 9 4 9 5 8 9 11 4 6 12 12 10 12 7 5
52 48 49 51 45 48 50 51 47 51 49 50 51 50 44 46 43 41 47 44 43 18 11 22 36 57 46 40 28 38 51 47 44 32 14 7 5 16 6 9 10 15 3 8 10 10 7 7 7 4 6 3 7 13
54 55 52 53 47 48 50 50 53 49 51 53 54 51 49 48 47 48 45 45 26 13 10 30 60 41 19 29 32 29 34 40 30 9 8 6 7 5 4 2 6 6 8 4 9 3 4 6 8 7 6 11 15 20
53 57 51 52 47 50 51 54 48 52 51 54 58 49 51 53 43 35 13 17 25 24 13 7 17 36 29 28 32 26 21 19 24 10 7 12 12 10 7 7 5 10 9 12 4 8 12 14 16 14 16 22 25 28
56 55 52 52 50 50 51 51 53 55 59 68 59 54 55 54 36 24 14 12 23 22 9 10 12 7 15 20 14 18 16 15 17 11 10 9 11 7 1 14 6 16 14 15 15 10 9 9 10 21 30 25 33 37
57 58 54 52 53 48 52 49 56 61 71 66 72 62 56 44 21 33 45 49 32 17 13 5 9 8 11 8 10 10 10 9 13 10 6 2 5 0 7 8 14 16 12 15 17 12 17 23 26 22 27 38 45 49
60 60 55 54 53 47 51 47 59 64 68 79 82 56 34 9 14 22 35 34 33 25 9 9 7 8 15 5 9 9 7 5 8 2 1 4 3 8 15 16 27 22 13 11 16 21 24 22 27 37 42 47 55 61
62 60 58 54 54 49 48 51 55 64 72 74 55 11 5 6 14 24 18 8 14 18 17 6 12 4 12 15 8 13 7 2 6 5 19 4 7 15 17 14 14 13 7 10 19 20 26 43 46 54 59 63 66 72
63 61 61 58 55 50 46 51 55 61 56 45 21 11 20 15 16 9 8 3 3 5 13 7 19 4 3 4 5 6 3 3 5 7 4 6 7 7 17 17 9 4 14 21 28 36 40 48 58 64 70 70 72 74
66 65 64 60 54 50 43 48 52 44 41 41 44 56 36 7 8 4 5 6 3 10 11 10 11 7 4 4 5 4 3 5 11 10 6 7 7 12 26 12 6 15 23 32 36 46 49 52 54 60 67 70 70 69
65 64 62 61 54 48 43 48 48 52 42 44 11 6 5 7 2 15 12 9 5 14 23 17 3 6 7 5 9 5 3 10 4 5 7 9 6 26 15 13 20 24 31 39 43 42 46 52 54 58 63 62 61 62
61 62 59 59 54 46 48 51 50 40 19 10 6 11 9 8 12 11 8 7 7 7 35 24 13 4 5 6 2 5 7 4 5 3 12 6 26 21 13 20 30 34 36 40 43 47 51 53 55 56 57 56 56 60
61 57 58 58 54 46 52 60 49 34 9 11 10 12 16 17 11 7 11 12 11 36 29 16 12 3 3 4 1 3 7 8 12 10 7 15 20 13 21 26 31 32 34 39 42 45 45 46 48 53 49 50 54 57
65 61 61 58 56 46 58 56 47 31 12 17 21 9 12 3 5 11 19 16 31 35 19 9 6 5 7 6 4 14 8 14 8 7 13 21 13 18 22 26 27 31 35 37 37 39 41 42 46 52 55 53 49 49
62 72 71 61 59 56 62 60 44 20 20 15 14 29 26 20 14 7 15 20 42 32 6 6 10 17 7 2 7 10 12 7 12 21 22 10 16 18 21 22 26 30 31 32 34 34 37 39 43 47 50 48 48 47
70 74 72 63 74 66 64 73 27 20 22 32 9 10 17 21 14 14 16 27 40 23 20 9 19 11 13 13 9 8 30 27 17 19 15 13 15 16 19 23 25 28 29 28 28 29 33 37 43 46 48 51 53 51
74 71 71 78 77 72 25 26 33 15 34 10 17 27 19 19 25 28 22 32 42 22 9 12 10 10 11 9 8 15 21 20 21 21 16 13 13 14 17 21 24 23 23 23 23 28 34 36 38 40 42 45 49 50
69 66 74 86 89 60 22 19 26 14 12 15 15 13 10 10 9 13 23 34 39 13 10 9 13 15 16 19 24 23 20 20 22 18 14 10 12 13 14 21 22 21 19 18 21 27 31 33 36 39 41 42 45 49
69 72 64 100 92 59 24 24 22 14 14 12 9 8 6 5 6 7 11 33 25 15 8 40 53 59 53 39 34 27 27 27 23 18 16 11 11 11 15 21 21 19 19 18 20 23 28 35 39 42 43 41 40 43
64 58 63 83 30 24 10 17 12 21 13 11 10 8 5 3 7 8 12 23 18 27 43 56 57 57 54 60 63 54 39 33 32 27 22 20 14 14 14 18 19 14 13 13 16 21 25 30 34 37 39 41 43 42
60 55 34 21 10 4 2 15 3 5 5 8 7 2 4 5 7 12 9 19 23 27 45 60 72 75 73 66 58 55 51 56 47 33 25 23 17 16 13 17 18 14 8 11 11 15 19 24 27 31 34 40 43 45
28 20 7 7 9 5 8 6 7 6 4 3 2 5 5 7 11 5 8 12 18 28 41 53 48 48 44 48 49 42 37 39 37 31 27 24 16 15 12 12 15 14 9 8 8 11 15 18 22 26 31 35 40 44
6 13 8 10 9 5 5 4 3 2 4 7 7 6 4 8 1 7 8 7 20 37 52 58 38 29 35 32 25 24 21 26 28 23 23 21 16 14 11 8 12 12 8 7 8 9 11 14 17 21 27 32 36 38
14 18 11 11 6 4 2 4 7 8 6 4 7 5 2 2 3 10 4 12 22 46 63 57 48 36 23 20 20 9 12 17 21 22 19 18 14 15 13 8 8 10 9 4 5 6 9 12 15 18 22 27 31 33
12 10 15 15 10 10 4 5 5 3 3 2 4 4 1 4 8 2 9 26 44 60 59 50 37 30 24 19 14 16 18 15 17 16 13 10 10 11 10 7 10 8 8 3 5 6 6 8 12 15 19 24 28 31
9 19 11 28 12 11 6 6 4 1 4 1 2 4 6 8 3 14 21 47 55 66 57 43 35 29 20 15 12 7 5 6 11 12 10 8 9 9 9 8 6 7 7 2 2 4 6 7 10 12 16 19 23 26
8 28 21 7 6 5 3 2 4 4 3 4 3 5 7 10 25 51 51 58 63 52 45 45 32 29 28 27 27 20 6 2 5 10 10 7 7 8 11 12 9 8 8 3 2 3 4 3 7 11 12 14 17 20
12 31 10 7 4 4 4 8 21 37 36 28 17 17 20 17 22 38 51 57 48 43 39 42 41 29 17 25 27 23 15 8 14 14 11 7 5 6 8 9 9 9 7 5 3 2 4 6 6 6 7 11 12 13
22 13 7 4 8 11 24 49 63 32 12 2 6 8 8 9 23 49 66 61 48 47 46 45 40 28 8 3 15 15 10 12 15 13 14 11 6 4 5 7 9 10 8 7 6 4 2 4 5 4 3 4 6 7
19 6 8 6 10 21 31 58 27 8 6 3 3 3 5 5 6 39 65 67 69 67 57 51 50 46 33 12 2 5 8 8 9 6 9 9 7 4 4 5 7 8 7 8 8 6 5 3 2 1 3 4 5 6
15 10 8 8 11 16 31 31 10 11 5 3 3 2 1 2 6 22 54 71 70 68 62 48 44 46 46 41 33 24 18 15 10 5 2 4 5 4 3 4 4 4 3 3 5 6 6 7 8 8 8 8 9 10
Wind_Direction_850mb
311 311 315 311 318 324 328 324 323 322 324 326 326 325 324 320 317 320 315 313 309 286 293 294 292 295 295 292 267 287 332 317 25 43 124 251 174 282 326 296 269 255 290 276 296 252 251 346 22 69 241 104 87 70
307 309 311 310 315 313 318 323 322 324 321 319 321 323 319 317 312 313 307 307 312 275 276 296 298 293 276 286 289 230 255 167 242 105 231 241 292 354 172 278 320 301 219 268 238 289 184 336 336 93 140 123 97 109
300 304 305 308 307 311 312 314 318 320 320 316 319 319 316 315 310 306 306 306 302 289 297 278 300 287 303 284 277 252 246 237 227 239 233 235 226 124 201 250 265 277 249 268 350 315 358 112 98 100 79 94 87 58
299 301 304 303 304 306 310 313 314 316 320 316 313 313 316 313 308 302 297 296 298 262 265 272 303 292 293 281 278 259 266 265 260 251 239 225 204 196 226 232 237 264 327 268 249 247 122 111 116 103 65 24 334 331
299 295 299 298 301 301 308 310 314 313 316 317 313 310 312 310 305 297 291 286 268 248 276 292 306 304 283 261 285 287 263 258 259 231 225 225 219 191 228 79 260 188 220 211 272 124 283 52 315 323 323 319 324 323
298 297 297 295 297 297 297 304 311 315 316 313 310 308 308 303 304 302 284 242 228 263 300 304 297 278 271 273 290 286 278 258 241 240 233 232 243 220 240 210 232 183 227 227 252 280 260 267 274 285 310 314 312 314
293 289 292 291 291 296 298 304 307 309 310 318 316 308 300 298 284 240 255 200 221 277 256 302 291 265 300 301 287 290 272 246 239 246 229 230 234 238 233 257 174 202 213 228 233 280 258 233 232 291 302 305 308 308
296 292 290 287 293 294 295 301 302 301 315 321 322 309 298 294 257 232 248 256 266 284 230 239 268 326 354 311 311 289 273 258 232 251 244 228 296 335 239 224 194 207 225 229 227 250 272 278 284 290 295 305 305 306
296 290 285 287 288 289 294 297 296 302 310 324 326 311 295 249 208 221 239 256 259 226 232 180 169 257 342 5 292 298 304 322 301 229 300 353 295 224 225 192 200 199 200 196 251 281 286 281 292 298 301 303 303 304
291 285 283 282 284 289 292 290 298 298 306 321 330 325 254 213 253 282 272 232 206 210 227 204 193 274 358 2 348 328 9 320 308 283 311 188 254 250 215 186 177 184 218 276 296 304 300 300 307 309 310 309 307 306
283 279 281 281 281 287 293 288 293 291 306 335 328 268 260 283 310 234 246 213 242 298 215 198 195 168 30 89 225 29 246 309 345 276 93 306 284 294 181 173 168 275 298 299 297 299 302 302 304 305 303 302 303 304
281 280 278 279 279 281 289 286 288 283 311 319 309 282 284 249 223 108 236 330 167 231 197 165 176 176 155 162 102 353 166 41 253 331 48 278 247 189 159 166 261 295 297 295 296 298 299 296 298 298 298 301 303 303
282 277 276 275 274 275 275 279 277 294 308 319 289 255 248 193 48 178 223 257 271 189 180 168 163 157 143 145 76 71 98 226 320 31 236 234 247 181 202 270 293 294 298 298 301 300 301 303 303 302 302 305 307 305
286 279 274 271 269 269 267 267 277 276 321 278 256 280 180 234 241 199 189 192 182 170 149 138 104 142 130 71 139 108 241 56 2 318 239 241 206 201 255 282 292 303 304 305 308 308 308 308 309 309 311 313 311 308
282 278 273 269 264 265 260 260 262 271 257 244 202 235 222 241 255 246 213 159 150 156 141 114 88 146 26 100 81 63 358 260 211 230 233 206 184 248 275 287 295 301 304 304 307 309 311 313 313 312 315 314 314 311
278 275 264 266 258 256 246 252 244 238 219 219 228 266 230 338 214 219 212 204 172 163 140 115 116 95 240 148 138 218 166 226 242 215 204 176 241 283 292 295 299 305 308 311 315 317 319 323 322 321 321 322 320 317
278 269 270 267 256 235 243 234 233 207 218 219 245 237 250 280 259 234 214 199 180 162 181 146 175 212 110 124 242 197 215 226 218 191 175 234 283 295 292 298 307 310 315 320 322 327 327 327 324 324 326 333 329 330
267 268 268 262 227 232 234 225 216 218 223 230 221 208 226 236 252 253 220 195 175 198 168 207 138 190 207 198 227 228 229 234 221 200 234 266 285 291 294 303 311 320 325 324 327 331 330 333 336 338 337 338 335 341
273 270 266 244 229 219 216 209 210 214 222 215 235 246 249 249 250 243 230 205 197 195 199 178 234 211 223 217 216 224 227 225 217 230 243 260 274 280 292 306 320 322 323 326 336 342 345 346 342 342 342 340 337 343
271 265 262 242 238 211 195 199 194 217 197 197 216 215 217 220 245 243 221 202 199 204 225 223 222 225 215 237 244 262 260 236 217 227 253 252 262 276 304 317 322 323 329 342 349 344 345 354 359 357 355 348 342 346
275 261 253 201 200 204 192 177 181 192 173 175 183 198 232 240 219 197 204 195 200 226 245 237 244 251 251 262 267 264 250 238 234 247 264 261 278 293 316 316 321 322 325 344 354 357 356 2 3 4 1 359 359 360
261 243 216 199 203 202 181 169 154 156 146 136 167 201 173 172 194 194 193 194 237 231 237 256 264 269 272 267 264 264 259 243 241 253 263 270 279 289 304 311 310 312 312 337 352 357 0 5 11 11 10 13 17 14
244 223 201 180 187 115 42 146 106 121 156 135 150 204 207 190 183 193 243 231 253 263 266 269 273 273 269 267 264 261 255 243 242 257 253 259 272 287 295 306 305 306 309 326 344 350 356 4 10 15 16 20 20 24
189 157 128 99 65 103 107 54 69 77 84 87 132 262 206 166 165 143 252 261 266 325 332 327 303 287 276 267 256 259 253 235 227 232 244 252 261 263 273 293 300 298 309 322 334 338 346 355 5 9 15 20 21 20
144 23 38 57 57 110 105 109 99 152 194 188 206 270 243 148 196 224 230 276 316 339 340 346 334 300 275 268 268 245 231 235 239 244 244 244 245 250 255 283 295 292 304 326 333 329 334 350 359 5 12 17 20 19
65 13 34 2 14 11 136 150 184 204 190 235 227 77 160 122 268 254 226 338 345 342 343 343 339 331 323 289 263 259 240 238 233 235 240 244 246 238 240 252 277 288 284 320 326 325 334 352 6 9 17 23 25 30
41 353 354 15 336 324 335 56 48 47 307 286 136 173 179 276 255 256 345 350 340 340 339 336 328 324 305 294 313 241 252 251 233 228 232 243 247 243 243 250 256 258 259 307 3 343 346 10 22 26 31 33 33 36
34 11 348 323 3 9 340 350 23 326 283 45 154 241 222 218 318 353 343 337 334 330 327 326 319 305 289 251 248 259 256 228 218 230 238 239 245 235 221 226 228 261 259 216 17 13 3 25 39 44 48 48 46 43
350 343 344 336 349 358 342 275 279 286 272 221 259 265 289 329 316 325 334 336 330 329 329 328 319 292 268 241 216 207 221 333 284 265 262 246 222 208 190 203 209 224 238 204 129 71 46 31 64 59 55 54 50 45
335 347 333 314 319 279 330 313 299 300 288 278 262 277 292 320 15 7 356 355 353 352 351 350 344 330 272 223 213 217 229 275 311 279 252 258 240 202 196 199 208 215 215 207 155 121 114 103 80 65 51 42 33 28
303 312 295 258 262 302 329 336 327 318 304 283 222 235 271 305 30 16 16 18 21 20 18 17 15 13 15 186 208 222 257 289 309 268 236 228 221 201 187 197 206 200 204 218 188 160 186 129 113 95 46 14 352 360
296 309 341 301 288 322 337 344 322 328 325 326 304 303 339 345 22 18 20 25 30 28 26 27 32 36 41 42 351 293 327 334 319 275 223 219 228 230 216 216 225 210 193 218 222 193 191 225 209 206 255 271 289 309
283 280 267 283 307 333 332 336 300 332 277 268 225 234 194 84 93 12 23 28 28 26 26 28 34 41 45 47 45 38 24 11 359 338 274 213 195 206 232 235 228 235 230 232 262 276 265 244 239 244 247 257 269 278